Location: Ertinghausen
(51.6624°N, 9.7874°E)
Time: 21:17:57
(UTC+00:00)

Cosmos 2221 Rocket - Pass Details

Date: 22 August 2024
Orbit: 617 x 644 km, 82.5° (Epoch: 17 September)

Event Time Altitude Azimuth Distance (km) Brightness Sun altitude
Rises 02:08:54 0° 345° (NNW) 2,969 7.5 -17.3°
Reaches altitude 10° 02:11:13 10° 340° (NNW) 2,052 6.6 -17.1°
Maximum altitude 02:15:36 49° 266° (W) 830 3.9 -16.6°
Enters shadow 02:17:33 29° 208° (SSW) 1,173 4.4 -16.4°
